User: anonymous   Login
Location: Oakhurst
(33.6448°N, 111.9543°W)
Time: 02:44:34
(UTC+00:00)
Language:

Oscar 19 - Orbit

View from above orbital plane
View from above orbital plane
View from above satellite
View from above satellite

Ground track
Ground track

The orbit data is extracted from the following two-line orbital elements,

1 20442U 90005G   21216.80529917 -.00000012  00000-0  12128-4 0  9991
2 20442  98.7442 172.7206 0012267  24.1857 335.9900 14.32993213647810
Epoch (UTC): 04 August 2021 19:19:37
Eccentricity: 0.0012267
inclination: 98.7442°
perigee height: 773 km
apogee height: 790 km
right ascension of ascending node: 172.7206°
argument of perigee: 24.1857°
revolutions per day: 14.32993213
mean anomaly at epoch: 335.9900°
orbit number at epoch: 64781

The dashed part of the orbit path shows where the satellite is in the earth's shadow,  

DLR